星链-34533 (STARLINK-34533)

导读

STARLINK-34553是美国SpaceX星链互联网卫星星座中的一员,于北京时间2025年6月28日发射升空。该卫星继承星链星座低轨互联网服务的设计目标,用于向全球提供高速低延迟宽带网络覆盖,弥补偏远地区网络基建短板,也为航空、海运等移动场景提供网络接入,强化星链星座的服务能力。

基本信息
目录编号:
64715
目录名称:
STARLINK-34533
国际标识:
2025-142V
轨道中心:
EARTH
卫星名称:
星链-34533
卫星全名:
星链-34533 (STARLINK-34533)
卫星状态:
在轨 (已飞行350 天)
发射日期:
2025-06-28 UTC
国别 :
美国 (US)
星等 :
--
轨道信息
数据来源 国际轨道数据
星历时间: 2026-06-13T12:08:33+0800
17小时前
查看轨道信息
半长轴: 6950.157km
偏心率: 0.0003151
轨道倾角: 70.002°
近地点辐角 269.682°
升交点赤经 73.693°
平近点角 90.398°
近地点: 569.83km
远地点: 574.21km
周期: 96.106分钟
每日圈数: 14.983418
详细信息
固有亮度:
5
最大亮度:
2.5
卫星平台:
Starlink V1.0
覆盖范围:
全球
运营商:
太空探索技术公司
运营商所在国:
美国
制造商(研发单位):
太空探索技术公司
制造商所在国:
美国
使用方式:
暂无
卫星简介
Starlink 计划是 SpaceX 推出的全球卫星互联网项目,通过发射低轨道卫星,为全球尤其是偏远地区提供高速、低延迟的互联网服务。自 2019 年起,Starlink 已部署数千颗卫星,旨在缩小全球数字鸿沟,推动互联网普及。该项目还为军事、航空等行业提供通信支持,带来广泛经济效益。
2D轨道图
3D轨道图
轨道高度分析图
轨道倾角分析图
轨道综合分析图
查看轨道综合分析图